Regional Weather Roundup
Issued by NWS Kansas City/Pleasant Hill, MO

Home | Current Version | Previous Version | Graphics & Text | Print | Product List | Glossary Off
Versions: 1 2 3 4 5 6 7 8 9 10 11 12 13 14 15 16 17 18 19 20 21 22 23 24 25 26 27 28 29 30 31 32 33 34 35 36 37 38 39 40 41 42 43 44 45 46 47 48 49 50

089
ASUS43 KEAX 060110
RWREAX

WEATHER ROUNDUP FOR EASTERN KANSAS AND NORTHWEST MISSOURI
NATIONAL WEATHER SERVICE KANSAS CITY/PLEASANT HILL MO
700 PM CST FRI FEB 05 2016

KSZ040-057-103>105-MOZ028-029-037-043-060200-
...KANSAS CITY METROPOLITAN AREA...

CITY           SKY/WX    TMP DP  RH WIND       PRES   REMARKS
K.C. INTL      CLOUDY    36  23  59 CALM      30.28R
K.C. DOWNTOWN  CLOUDY    38  24  57 NE7       30.29R WCI  33
LEES SUMMIT    CLOUDY    39  23  52 SE3       30.28F
OLATHE - IXD   PTCLDY    36  22  56 SE5       30.28S WCI  32
OLATHE - OJC   MOCLDY    39  22  50 SE3       30.27F
LAWRENCE       CLOUDY    32  22  66 NE5       30.29S WCI  27

$$

MOZ001>008-011>017-020>025-030>033-038>040-044>046-053-054-060200-
...NORTHERN AND CENTRAL MISSOURI...

CITY           SKY/WX    TMP DP  RH WIND       PRES   REMARKS
ST. JOSEPH     CLOUDY    36  24  62 SE7       30.29F WCI  30
MOSBY          CLOUDY    36  25  64 E3        30.29S
WARRENSBURG    CLOUDY    39  25  56 S5        30.29F
WHITEMAN AFB   MOCLDY    39  24  55 S7        30.28F WCI  34
CLINTON          N/A     37  27  65 CALM      30.31F
SEDALIA        CLOUDY    38  21  50 SE7       30.32F WCI  33
WARSAW         NOT AVBL
CHILLICOTHE      N/A     35  23  61 SE5       30.33S WCI  31
KIRKSVILLE     MOCLDY    29  20  69 SE7       30.32F WCI  22

$$

MOZ041-047>049-056>058-063>065-088>090-097-060200-
...EASTERN AND SOUTHERN MISSOURI...

CITY           SKY/WX    TMP DP  RH WIND       PRES   REMARKS
ST. LOUIS INTL CLOUDY    35  17  47 CALM      30.37S
SPIRIT OF STL  CLOUDY    31  22  69 E3        30.36S
COLUMBIA       PTCLDY    35  16  45 E6        30.31F WCI  30
JEFFERSON CITY CLEAR     33  19  56 CALM      30.33F
ROLLA          CLEAR     32  20  61 E5        30.30F WCI  27
OSAGE BEACH    MOCLDY    39  19  45 NE3       30.31F
SPRINGFIELD    CLOUDY    35  20  54 CALM      30.29S
BRANSON        MOCLDY    41  14  33 CALM      30.31S
JOPLIN         PTCLDY    43  20  39 CALM      30.30S
WEST PLAINS    CLEAR     38  15  39 CALM      30.31F

$$

IAZ060-094-KSZ022-034>040-054-083-096-NEZ052-066-093-060200-
...KANSAS...SOUTHEAST NEBRASKA AND IOWA...

CITY           SKY/WX    TMP DP  RH WIND       PRES   REMARKS
TOPEKA         PTCLDY    35  23  61 CALM      30.28S
MANHATTAN      CLOUDY    38  23  55 CALM      30.26R
EMPORIA        CLEAR     42  23  46 SE5       30.25R
CHANUTE        MOCLDY    43  24  47 SE6       30.27S
WICHITA        PTCLDY    41  24  51 N8        30.25R
OMAHA          CLOUDY    31  28  89 S8        30.25S FOG     WCI  23
LINCOLN        FLURRIES  33  28  81 SW5       30.26R WCI  29
FALLS CITY     CLOUDY    33  26  75 SE7       30.26S WCI  27
LAMONI         LGT SNOW  30  25  81 S6        30.28S WCI  24
DES MOINES     FLURRIES  30  23  75 S8        30.30R WCI  22

$$





USA.gov is the U.S. government's official web portal to all federal, state and local government web resources and services.